Cook, MN

1:08 PM CDT on April 26, 2017 (GMT -0500)
Cook Municipal

Weather History for KCQM - March, 2013

Change the Weather History Date:

Friday, March 15, 2013

  Actual Average Record
Temperature  
Mean Temperature 19 °F -  
Max Temperature 30 °F 33 °F 64 °F (2015)
Min Temperature 8 °F 10 °F -9 °F (1997)
Degree Days  
Heating Degree Days 46    
Moisture  
Dew Point 9 °F    
Average Humidity 68    
Maximum Humidity 92    
Minimum Humidity 36    
Precipitation  
Precipitation 0.00 in - - ()
Sea Level Pressure  
Sea Level Pressure 30.00 in    
Wind  
Wind Speed 6 mph (NNE)    
Max Wind Speed 9 mph    
Max Gust Speed 16 mph    
Visibility 8 miles    
Events Snow    
Averages and records for this station are not official NWS values.
T = Trace of Precipitation, MM = Missing Value Source: NWS Daily Summary

Daily Weather History Graph

Daily Weather History Graph

Search for Another Location

Airport or City:

Trip Planner

Search our weather history database for the weather conditions in past years. The results will help you decide how hot, cold, wet, or windy it might be!

Date:

Astronomy

Mar. 15, 2013 Rise Set
Actual Time 7:23 AM CDT 7:16 PM CDT
Civil Twilight 6:52 AM CDT 7:47 PM CDT
Nautical Twilight 6:16 AM CDT 8:23 PM CDT
Astronomical Twilight 5:39 AM CDT 9:00 PM CDT
Moon 8:54 AM CDT (3/15) 11:52 PM CDT (3/15)
Length of Visible Light 12h 55m
Length of Day
11h 53m
Waxing Crescent, 15% of the Moon is Illuminated
Mar 15
Waxing Crescent
Mar 19
First Quarter
Mar 27
Full
Apr 2
Last Quarter
Apr 10
New

Hourly Weather History & Observations

Time (CDT) Temp. Windchill Dew Point Humidity Pressure Visibility Wind Dir Wind Speed Gust Speed Precip Events Conditions
12:16 AM 30.2 °F 22.6 °F 26.6 °F 86% 29.96 in 10.0 mi NNW 8.1 mph - N/A   Overcast
12:36 AM 30.2 °F 25.4 °F 26.6 °F 86% 29.97 in 10.0 mi NNW 4.6 mph - N/A   Overcast
12:57 AM 28.4 °F 19.7 °F 24.8 °F 86% 29.97 in 10.0 mi North 9.2 mph 16.1 mph N/A   Overcast
1:16 AM 28.4 °F 22.2 °F 23.0 °F 80% 29.97 in 10.0 mi North 5.8 mph - N/A   Overcast
1:36 AM 26.6 °F 18.2 °F 21.2 °F 80% 29.97 in 10.0 mi North 8.1 mph - N/A   Overcast
1:57 AM 26.6 °F 19.1 °F 19.4 °F 74% 29.98 in 10.0 mi North 6.9 mph - N/A   Overcast
2:16 AM 26.6 °F 19.1 °F 19.4 °F 74% 29.98 in 10.0 mi NNW 6.9 mph - N/A   Overcast
2:37 AM 26.6 °F 20.0 °F 19.4 °F 74% 29.98 in 10.0 mi NNW 5.8 mph - N/A   Overcast
2:57 AM 26.6 °F 19.1 °F 19.4 °F 74% 29.98 in 10.0 mi North 6.9 mph - N/A   Overcast
3:16 AM 24.8 °F 19.1 °F 19.4 °F 80% 29.98 in 10.0 mi North 4.6 mph - N/A   Overcast
3:37 AM 24.8 °F 16.9 °F 17.6 °F 74% 29.98 in 10.0 mi North 6.9 mph - N/A   Overcast
3:57 AM 24.8 °F 17.9 °F 17.6 °F 74% 29.99 in 10.0 mi North 5.8 mph - N/A   Overcast
4:16 AM 23.0 °F 14.7 °F 15.8 °F 74% 29.99 in 10.0 mi North 6.9 mph - N/A   Overcast
4:37 AM 21.2 °F 10.9 °F 15.8 °F 80% 29.99 in 10.0 mi North 9.2 mph - N/A   Scattered Clouds
4:57 AM 21.2 °F 12.6 °F 15.8 °F 80% 30.00 in 10.0 mi North 6.9 mph - N/A   Clear
5:16 AM 21.2 °F 14.9 °F 15.8 °F 80% 30.01 in 10.0 mi NNE 4.6 mph - N/A   Scattered Clouds
5:37 AM 19.4 °F 12.8 °F 14.0 °F 80% 30.02 in 10.0 mi North 4.6 mph - N/A   Scattered Clouds
5:57 AM 19.4 °F 9.5 °F 14.0 °F 80% 30.02 in 10.0 mi North 8.1 mph - N/A   Mostly Cloudy
6:16 AM 19.4 °F 14.3 °F 12.2 °F 74% 30.03 in 10.0 mi NNE 3.5 mph - N/A   Overcast
6:37 AM 17.6 °F 8.2 °F 12.2 °F 79% 30.03 in 10.0 mi North 6.9 mph - N/A   Scattered Clouds
6:57 AM 17.6 °F 8.2 °F 10.4 °F 73% 30.03 in 10.0 mi NNE 6.9 mph - N/A   Clear
7:16 AM 15.8 °F 8.6 °F 10.4 °F 79% 30.04 in 10.0 mi NNE 4.6 mph - N/A   Clear
7:37 AM 15.8 °F 5.1 °F 10.4 °F 79% 30.04 in 10.0 mi NNE 8.1 mph - N/A   Clear
7:57 AM 15.8 °F 7.2 °F 10.4 °F 79% 30.05 in 10.0 mi North 5.8 mph - N/A   Scattered Clouds
8:16 AM 15.8 °F 7.2 °F 10.4 °F 79% 30.05 in 10.0 mi North 5.8 mph - N/A Snow Light Snow
8:37 AM 15.8 °F 8.6 °F 10.4 °F 79% 30.05 in 5.0 mi NNE 4.6 mph - N/A Snow Light Snow
8:56 AM 15.8 °F 7.2 °F 8.6 °F 73% 30.05 in 10.0 mi NNE 5.8 mph - N/A   Overcast
9:16 AM 15.8 °F 6.1 °F 8.6 °F 73% 30.04 in 10.0 mi NE 6.9 mph - N/A   Scattered Clouds
9:37 AM 15.8 °F 7.2 °F 6.8 °F 68% 30.04 in 10.0 mi NE 5.8 mph - N/A   Scattered Clouds
9:56 AM 15.8 °F 7.2 °F 5.0 °F 62% 30.04 in 10.0 mi NE 5.8 mph - N/A   Scattered Clouds
10:16 AM 15.8 °F 5.1 °F 5.0 °F 62% 30.03 in 10.0 mi ENE 8.1 mph - N/A   Mostly Cloudy
10:37 AM 15.8 °F 7.2 °F 3.2 °F 58% 30.03 in 10.0 mi NNE 5.8 mph - N/A   Scattered Clouds
10:56 AM 17.6 °F 9.3 °F 5.0 °F 58% 30.03 in 10.0 mi NNE 5.8 mph - N/A   Scattered Clouds
11:16 AM 17.6 °F 9.3 °F 5.0 °F 58% 30.03 in 10.0 mi ENE 5.8 mph - N/A   Mostly Cloudy
11:37 AM 19.4 °F 10.4 °F 5.0 °F 54% 30.03 in 10.0 mi NNE 6.9 mph - N/A   Scattered Clouds
11:56 AM 19.4 °F 10.4 °F 3.2 °F 49% 30.02 in 10.0 mi NNE 6.9 mph - N/A   Scattered Clouds
12:16 PM 19.4 °F 11.5 °F 1.4 °F 46% 30.02 in 10.0 mi NNE 5.8 mph - N/A   Scattered Clouds
12:37 PM 19.4 °F 11.5 °F 1.4 °F 46% 30.02 in 10.0 mi NNE 5.8 mph - N/A   Clear
12:56 PM 19.4 °F 12.8 °F -0.4 °F 42% 30.01 in 10.0 mi NNE 4.6 mph - N/A   Clear
1:16 PM 19.4 °F 10.4 °F -0.4 °F 42% 30.02 in 10.0 mi NE 6.9 mph - N/A   Clear
1:36 PM 19.4 °F 12.8 °F -2.2 °F 39% 30.01 in 10.0 mi North 4.6 mph - N/A   Scattered Clouds
1:56 PM 21.2 °F 12.6 °F -2.2 °F 36% 30.00 in 10.0 mi ENE 6.9 mph - N/A   Scattered Clouds
2:17 PM 21.2 °F 12.6 °F -2.2 °F 36% 29.99 in 10.0 mi NE 6.9 mph - N/A   Clear
2:36 PM 21.2 °F 13.6 °F -2.2 °F 36% 29.98 in 10.0 mi NE 5.8 mph - N/A   Scattered Clouds
2:57 PM 19.4 °F 10.4 °F -4.0 °F 36% 29.97 in - NE 6.9 mph - N/A   Scattered Clouds
3:17 PM 21.2 °F 12.6 °F -2.2 °F 36% 29.97 in 10.0 mi NE 6.9 mph - N/A   Scattered Clouds
3:36 PM 21.2 °F 13.6 °F -2.2 °F 36% 29.97 in 10.0 mi NE 5.8 mph - N/A   Scattered Clouds
3:56 PM 21.2 °F 16.4 °F -0.4 °F 39% 29.97 in 10.0 mi North 3.5 mph - N/A   Scattered Clouds
4:17 PM 19.4 °F 11.5 °F -2.2 °F 39% 29.97 in 10.0 mi NNE 5.8 mph - N/A   Mostly Cloudy
4:36 PM 19.4 °F 10.4 °F -4.0 °F 36% 29.97 in 10.0 mi NNE 6.9 mph - N/A   Overcast
4:56 PM 19.4 °F 12.8 °F -2.2 °F 39% 29.97 in 10.0 mi North 4.6 mph - N/A   Overcast
5:17 PM 19.4 °F 9.5 °F -0.4 °F 42% 29.96 in 10.0 mi North 8.1 mph - N/A   Overcast
5:36 PM 17.6 °F 7.3 °F 3.2 °F 53% 29.97 in 10.0 mi North 8.1 mph - N/A   Overcast
5:57 PM 17.6 °F - 6.8 °F 63% 29.98 in 10.0 mi Calm Calm - N/A   Overcast
6:16 PM 15.8 °F 5.1 °F 5.0 °F 62% 29.99 in 10.0 mi North 8.1 mph - N/A   Overcast
6:36 PM 15.8 °F 6.1 °F 6.8 °F 68% 29.99 in 4.0 mi North 6.9 mph - N/A Snow Light Snow
6:57 PM 14.0 °F 5.1 °F 8.6 °F 79% 29.99 in 1.5 mi NNE 5.8 mph - N/A Snow Light Snow
7:16 PM 12.2 °F 4.3 °F 10.4 °F 92% 29.99 in 1.0 mi NNE 4.6 mph - N/A Snow Light Snow
7:36 PM 12.2 °F - 10.4 °F 92% 29.98 in 3.0 mi Calm Calm - N/A Snow Light Snow
7:57 PM 12.2 °F 4.3 °F 8.6 °F 85% 29.99 in 1.2 mi NNE 4.6 mph - N/A Snow Light Snow
8:16 PM 12.2 °F 6.1 °F 8.6 °F 85% 30.00 in 1.8 mi NNE 3.5 mph - N/A Snow Light Snow
8:36 PM 12.2 °F 6.1 °F 8.6 °F 85% 30.00 in 1.8 mi NNE 3.5 mph - N/A Snow Light Snow
8:57 PM 12.2 °F - 8.6 °F 85% 30.00 in 1.2 mi Calm Calm - N/A Snow Light Snow
9:16 PM 12.2 °F 4.3 °F 8.6 °F 85% 30.00 in 1.0 mi NE 4.6 mph - N/A Snow Snow
9:37 PM 10.4 °F 0.8 °F 8.6 °F 92% 30.00 in 2.0 mi ENE 5.8 mph - N/A Snow Light Snow
9:56 PM 10.4 °F 4.0 °F 8.6 °F 92% 30.01 in 2.5 mi NE 3.5 mph - N/A Snow Light Snow
10:17 PM 10.4 °F 4.0 °F 6.8 °F 85% 30.01 in 3.0 mi NE 3.5 mph - N/A Snow Light Snow
10:36 PM 10.4 °F - 6.8 °F 85% 30.02 in 2.5 mi Calm Calm - N/A Snow Light Snow
10:56 PM 10.4 °F 4.0 °F 6.8 °F 85% 30.02 in 2.0 mi North 3.5 mph - N/A Snow Light Snow
11:17 PM 10.4 °F 4.0 °F 6.8 °F 85% 30.02 in 2.0 mi North 3.5 mph - N/A Snow Light Snow
11:36 PM 8.6 °F 2.0 °F 6.8 °F 92% 30.02 in 3.0 mi North 3.5 mph - N/A Snow Light Snow
11:56 PM 8.6 °F 2.0 °F 6.8 °F 92% 30.02 in 2.5 mi North 3.5 mph - N/A Snow Light Snow